Total_Precipitation_Accumulation
0.45 0.45 0.43 0.43 0.38 0.38 0.43 0.50 0.86 1.24 1.67 2.08 2.21 2.16 2.12 2.02 1.80 1.50 1.41 1.47 1.44 1.39 1.38 1.31 1.25 1.29 1.27 1.20 1.12 1.30 1.27 1.23 1.13 1.03 1.05 1.10 1.08 1.04 0.99 0.95 0.90 0.91 0.92 0.87
0.43 0.34 0.38 0.43 0.44 0.47 0.55 0.60 0.82 1.30 1.89 2.24 2.30 2.21 2.16 2.07 1.89 1.79 1.70 1.65 1.62 1.54 1.52 1.51 1.41 1.38 1.32 1.30 1.25 1.33 1.39 1.44 1.45 1.34 1.28 1.28 1.19 1.05 1.03 1.02 0.93 0.84 0.79 0.77
0.69 0.39 0.55 0.92 0.73 0.68 0.78 0.85 1.06 1.64 1.95 1.92 2.01 2.14 2.28 2.34 2.21 2.07 1.98 1.90 1.87 1.81 1.74 1.73 1.69 1.60 1.51 1.43 1.39 1.40 1.45 1.48 1.46 1.43 1.41 1.38 1.22 1.08 1.08 1.05 1.02 0.98 0.87 0.81
0.76 0.82 1.40 1.28 0.71 0.71 0.92 1.06 1.16 1.41 1.52 1.56 1.62 1.74 1.85 1.98 2.08 2.09 1.94 1.84 1.84 1.87 1.83 1.82 1.71 1.62 1.55 1.48 1.46 1.49 1.49 1.48 1.43 1.33 1.32 1.25 1.16 1.13 1.09 1.03 1.01 0.96 0.90 0.82
0.86 1.17 1.40 1.23 0.75 0.74 1.16 1.68 1.37 1.31 1.22 1.12 1.10 1.26 1.63 1.81 1.89 2.05 2.08 1.96 1.91 1.86 1.76 1.71 1.67 1.59 1.52 1.51 1.51 1.51 1.48 1.38 1.30 1.21 1.19 1.11 1.09 1.03 0.96 0.91 0.90 0.85 0.76 0.71
0.96 1.39 1.69 1.59 0.79 0.60 1.05 2.11 1.63 1.39 1.25 1.11 1.22 1.54 1.65 1.58 1.60 1.67 1.76 1.81 1.69 1.54 1.44 1.49 1.53 1.50 1.47 1.45 1.44 1.43 1.22 1.04 0.99 1.01 1.00 0.96 0.91 0.86 0.82 0.81 0.80 0.72 0.63 0.66
1.09 1.51 1.73 0.98 0.56 0.72 1.63 2.09 1.64 1.37 1.21 1.14 1.37 1.50 1.30 1.23 1.30 1.32 1.34 1.32 1.24 1.18 1.24 1.32 1.35 1.29 1.29 1.23 1.23 1.19 1.08 0.94 0.91 0.89 0.83 0.79 0.79 0.79 0.76 0.72 0.75 0.74 0.72 0.67
1.18 1.62 1.79 0.81 0.63 1.08 1.32 1.10 1.10 1.07 1.00 0.96 0.94 0.89 0.94 0.97 1.00 0.96 0.97 0.98 0.93 0.96 1.03 1.08 1.04 1.05 1.13 1.13 1.05 0.99 1.02 0.95 0.90 0.81 0.70 0.69 0.81 0.80 0.77 0.78 0.80 0.77 0.74 0.68
1.17 1.44 1.19 0.70 0.65 0.73 0.76 0.83 0.81 0.80 0.75 0.63 0.59 0.57 0.67 0.69 0.69 0.68 0.69 0.75 0.78 0.79 0.84 0.94 0.97 0.99 1.04 1.03 0.93 0.93 1.00 0.98 0.86 0.73 0.75 0.74 0.80 0.79 0.74 0.73 0.68 0.62 0.60 0.60
0.85 0.95 0.78 0.65 0.61 0.57 0.52 0.55 0.55 0.58 0.61 0.53 0.50 0.54 0.59 0.60 0.58 0.56 0.59 0.61 0.68 0.72 0.72 0.80 0.83 0.86 0.92 0.85 0.84 0.99 1.10 1.04 0.89 0.78 0.73 0.70 0.68 0.62 0.58 0.59 0.57 0.54 0.52 0.51
0.83 0.88 0.82 0.78 0.58 0.49 0.42 0.40 0.39 0.43 0.46 0.46 0.47 0.50 0.49 0.51 0.55 0.58 0.60 0.64 0.67 0.71 0.70 0.66 0.67 0.73 0.70 0.71 0.84 1.08 1.06 0.95 0.83 0.69 0.63 0.61 0.54 0.47 0.43 0.41 0.39 0.40 0.39 0.37
0.78 0.70 0.80 0.84 0.62 0.48 0.46 0.43 0.40 0.35 0.35 0.39 0.44 0.51 0.47 0.45 0.48 0.52 0.53 0.57 0.67 0.66 0.59 0.60 0.66 0.68 0.63 0.63 0.73 0.94 0.97 0.79 0.66 0.56 0.49 0.42 0.38 0.38 0.31 0.26 0.24 0.22 0.22 0.23
0.47 0.44 0.48 0.47 0.40 0.36 0.36 0.38 0.37 0.34 0.33 0.40 0.43 0.44 0.44 0.44 0.43 0.51 0.56 0.56 0.59 0.59 0.57 0.56 0.58 0.59 0.55 0.55 0.61 0.74 0.79 0.61 0.48 0.43 0.42 0.39 0.36 0.42 0.42 0.28 0.19 0.17 0.19 0.20
0.28 0.33 0.38 0.40 0.42 0.36 0.34 0.35 0.35 0.32 0.34 0.40 0.45 0.41 0.40 0.43 0.45 0.46 0.50 0.49 0.41 0.39 0.45 0.51 0.51 0.49 0.42 0.38 0.47 0.52 0.49 0.38 0.33 0.36 0.34 0.30 0.28 0.31 0.35 0.39 0.39 0.32 0.26 0.22
0.28 0.30 0.36 0.40 0.42 0.39 0.39 0.39 0.39 0.38 0.36 0.37 0.35 0.33 0.32 0.34 0.36 0.36 0.37 0.34 0.35 0.39 0.40 0.41 0.45 0.47 0.35 0.30 0.33 0.33 0.32 0.30 0.27 0.26 0.24 0.22 0.21 0.22 0.24 0.30 0.39 0.41 0.35 0.26
0.32 0.32 0.32 0.37 0.42 0.43 0.43 0.45 0.47 0.44 0.37 0.35 0.32 0.33 0.31 0.29 0.27 0.26 0.26 0.27 0.35 0.39 0.37 0.38 0.42 0.35 0.29 0.30 0.32 0.31 0.26 0.22 0.24 0.23 0.22 0.20 0.19 0.20 0.22 0.26 0.31 0.37 0.37 0.31
0.41 0.42 0.38 0.37 0.38 0.39 0.37 0.35 0.37 0.39 0.33 0.31 0.27 0.26 0.23 0.22 0.24 0.26 0.28 0.28 0.32 0.33 0.32 0.34 0.33 0.25 0.21 0.23 0.26 0.25 0.21 0.18 0.19 0.19 0.22 0.20 0.19 0.20 0.22 0.24 0.29 0.34 0.32 0.30
0.41 0.40 0.39 0.37 0.35 0.31 0.28 0.27 0.25 0.27 0.28 0.25 0.22 0.20 0.19 0.21 0.24 0.27 0.27 0.25 0.27 0.31 0.30 0.25 0.23 0.21 0.19 0.17 0.21 0.22 0.22 0.20 0.19 0.21 0.21 0.20 0.21 0.23 0.25 0.26 0.27 0.31 0.32 0.30
0.29 0.26 0.28 0.28 0.26 0.23 0.23 0.24 0.21 0.20 0.21 0.19 0.18 0.18 0.20 0.20 0.20 0.24 0.26 0.28 0.32 0.35 0.31 0.25 0.21 0.20 0.22 0.18 0.19 0.22 0.22 0.20 0.19 0.19 0.17 0.17 0.18 0.20 0.21 0.22 0.23 0.30 0.33 0.33
0.22 0.22 0.24 0.24 0.21 0.20 0.23 0.22 0.17 0.17 0.18 0.18 0.18 0.20 0.21 0.19 0.19 0.22 0.26 0.31 0.34 0.31 0.28 0.25 0.21 0.22 0.22 0.17 0.14 0.15 0.17 0.18 0.18 0.19 0.18 0.17 0.18 0.18 0.20 0.22 0.22 0.26 0.33 0.32
0.26 0.26 0.27 0.25 0.23 0.22 0.23 0.21 0.18 0.18 0.19 0.19 0.20 0.21 0.20 0.19 0.19 0.21 0.26 0.28 0.25 0.23 0.24 0.23 0.23 0.19 0.17 0.15 0.12 0.12 0.13 0.15 0.18 0.18 0.18 0.16 0.14 0.14 0.16 0.18 0.21 0.27 0.32 0.30
0.29 0.29 0.29 0.27 0.24 0.25 0.24 0.21 0.19 0.19 0.22 0.22 0.18 0.17 0.19 0.21 0.22 0.22 0.23 0.24 0.23 0.21 0.20 0.19 0.17 0.15 0.15 0.13 0.11 0.10 0.11 0.12 0.14 0.15 0.16 0.15 0.12 0.13 0.16 0.19 0.21 0.22 0.24 0.24
0.31 0.30 0.32 0.32 0.30 0.29 0.26 0.22 0.20 0.20 0.22 0.22 0.21 0.22 0.25 0.27 0.25 0.23 0.22 0.20 0.21 0.18 0.17 0.16 0.13 0.12 0.12 0.10 0.09 0.08 0.08 0.08 0.09 0.10 0.12 0.13 0.14 0.14 0.15 0.19 0.22 0.23 0.22 0.23
0.40 0.36 0.34 0.35 0.37 0.35 0.33 0.29 0.24 0.21 0.21 0.21 0.24 0.28 0.30 0.28 0.22 0.20 0.23 0.24 0.23 0.16 0.14 0.12 0.11 0.10 0.08 0.07 0.07 0.08 0.08 0.08 0.09 0.10 0.11 0.11 0.11 0.12 0.14 0.17 0.21 0.21 0.20 0.21
0.38 0.40 0.38 0.40 0.45 0.42 0.38 0.35 0.29 0.26 0.25 0.25 0.25 0.25 0.24 0.20 0.20 0.18 0.14 0.14 0.15 0.12 0.09 0.08 0.08 0.08 0.07 0.06 0.07 0.09 0.09 0.09 0.11 0.11 0.11 0.10 0.09 0.09 0.10 0.14 0.20 0.21 0.20 0.20
0.43 0.50 0.49 0.45 0.45 0.43 0.37 0.34 0.35 0.36 0.36 0.33 0.29 0.24 0.20 0.17 0.17 0.17 0.12 0.10 0.11 0.09 0.07 0.07 0.06 0.06 0.07 0.07 0.08 0.09 0.10 0.10 0.10 0.10 0.10 0.10 0.10 0.11 0.12 0.15 0.19 0.22 0.22 0.19
0.53 0.55 0.54 0.50 0.42 0.38 0.38 0.35 0.35 0.37 0.39 0.40 0.36 0.26 0.20 0.17 0.18 0.17 0.13 0.11 0.11 0.09 0.08 0.08 0.06 0.07 0.08 0.10 0.10 0.09 0.09 0.09 0.10 0.12 0.12 0.11 0.10 0.12 0.15 0.18 0.23 0.26 0.23 0.18